www.pogodaiklimat.ru
Время
и дата
22:54 04.02
23:54 04.02
00:54 05.02
01:54 05.02
02:54 05.02
03:54 05.02
04:54 05.02
05:54 05.02
06:54 05.02
07:54 05.02
08:54 05.02
09:54 05.02
10:54 05.02
11:54 05.02
12:54 05.02
13:54 05.02
14:54 05.02
15:54 05.02
16:54 05.02
17:54 05.02
18:54 05.02
19:54 05.02
20:54 05.02
21:54 05.02
22:54 05.02
23:54 05.02
00:54 06.02
01:54 06.02
02:54 06.02
03:54 06.02
04:54 06.02
05:54 06.02
06:54 06.02
07:54 06.02
08:54 06.02
09:54 06.02
10:54 06.02
11:54 06.02
12:54 06.02
13:54 06.02
14:54 06.02
15:54 06.02
16:54 06.02
17:54 06.02
18:54 06.02
19:54 06.02
20:54 06.02
21:54 06.02
Ветер
(напр.,м/с)
Видим. Явления Облачность Т
(С)
Тd
(С)
f
(%)
Тe
(С)
Тes
(С)
Комфортность P
(гПа)
Po
(гПа)
Тmin
(С)
Tmax
(С)
R
(мм)
R24
(мм)
S
(см)
Ю 3 16 км 5/0 7500 m
[Ci]
-3.9 -13.3 48 -9 -9 1030.8 1030.3
Ю 2 16 км 8/0 7500 m
[Ci]
-3.9 -11.1 57 -8 -8 1030.1 1029.7
Ю 3 16 км 10/0 7200 m
[Ci]
-2.2 -8.9 60 -7 -7 1028.8 1028.3 -4.4 -2.2
Ю 3 16 км 10/0 6900 m
[Ci]
-1.7 -8.3 61 -6 -6 1028.2 1028.0
Ю 4 16 км 10/0 7200 m
[Ci]
-0.6 -8.9 53 -6 -6 1027.5 1026.9
ЮЗ 4 16 км 10/0 6600 m
[Ci]
-0.6 -8.3 56 -6 -6 1026.9 1026.6
Ю 4 16 км 10/0 6900 m
[Ci]
0.0 -8.9 51 -5 -5 1026.3 1025.9
Ю 4 16 км 10/0 6900 m
[Ci]
0.0 -8.9 51 -5 -5 1026.2 1025.9
Ю 4 16 км 10/0 7200 m
[Ci]
0.0 -8.3 54 -5 -5 1026.0 1025.6 -2.2
Ю 4 16 км 8/0 7200 m
[Ci]
0.0 -7.8 56 -5 -5 1025.4 1024.9
ЮЗ 6 16 км 8/0 7500 m
[Ci]
+1.7 -7.8 49 -4 -3 1025.0 1024.6
ЮЗ 5 16 км 8/0 7500 m
[Ci]
+3.3 -7.8 44 -1 0 1024.2 1023.9
ЮЗ 4 16 км 8/0 6900 m
[Ci]
+5.0 -7.8 39 +2 +4 1023.4 1023.2
ЮЗ 5 16 км 8/0 6300 m
[Ci]
+6.7 -6.7 38 +3 +6 1022.4 1021.9
ЮЗ 5 16 км 8/0 6000 m
[Ac Ci]
+8.3 -6.1 35 +5 +8 1021.0 1020.5 -0.6 +8.3
ЮЗ 5 16 км 10/0 5400 m
[Ac]
+9.4 -6.1 33 +7 +8 1019.8 1019.5
ЮЗ 6 16 км 10/0 5400 m
[Ac]
+10.6 -5.6 32 +8 +9 1018.7 1018.1
ЮЗ 5 16 км 8/0 5700 m
[Ac Ci]
+11.1 -6.1 29 +9 +10 1017.9 1017.5
ЮЗ 4 16 км 8/0 5700 m
[Ac Ci]
+10.0 -6.7 30 +8 +8 1017.5 1017.1
ЮЗ 2 16 км 8/0 5400 m
[Ac Ci]
+8.9 -6.1 34 +8 +8 1017.3 1016.8
Ю 3 16 км 8/0 5400 m
[Ac]
+7.8 -3.9 43 +6 +6 1016.6 1016.1 +7.8 +11.1
Ю 2 16 км 8/0 6000 m
[Ac]
+7.8 -3.3 45 +6 +6 1016.6 1016.1
ЮЗ 2 16 км 8/0 5700 m
[Ac]
+6.7 -1.1 57 +5 +5 1016.6 1016.1
ЮЗ 4 16 км 10/0 6000 m
[Ac]
+7.8 +1.1 63 +5 +5 1016.6 1016.1
ЮЗ 2 16 км 8/0 5400 m
[Ac Ci]
+6.1 +1.1 70 +4 +4 1016.6 1016.1
Ю 3 16 км 10/0 2550 m
[Ac]
+6.7 +2.2 73 +4 +4 1016.1 1015.8
З 2 16 км 8/0 3000 m
[Ac]
+5.6 +2.2 79 +3 +3 1015.5 1015.1 +5.6 +8.3
З 3 16 км 5/0 3000 m
[Ac Ci]
+3.9 +1.1 82 0 0 1014.4 1014.1
штиль 0 16 км 2/0 3000 m
[Ac Ci]
+2.8 +0.6 85 +2 +2 1013.9 1013.4
штиль 0 16 км ясно +1.1 0.0 92 0 0 1013.5 1013.1
штиль 0 16 км ясно +1.1 -0.6 88 0 0 1013.6 1013.1
штиль 0 16 км 2/0 6000 m
[Ac]
+1.7 +0.6 92 +1 +1 1014.2 1013.7
штиль 0 16 км 8/0 2700 m
[Ac]
+2.2 +1.1 92 +1 +1 1014.7 1014.4 +5.6
СЗ 2 16 км 8/0 2850 m
[Ac]
+2.8 +0.6 85 0 0 1015.0 1014.8
СЗ 3 16 км 5/0 2850 m
[Ac]
+5.6 0.0 67 +3 +3 1015.5 1015.1
С 7 16 км 2/2 1500 m
[Ac]
+10.0 -1.7 44 +7 +7 1016.1 1015.8
СЗ 9 16 км 8/8 1800 м +10.6 -1.1 44 +7 +7 1016.7 1016.5
С 8 16 км 8/0 2100 m
[Ac]
+10.6 -1.7 42 +7 +8 1016.8 1016.5
С 11
{15}
16 км 8/8 1410 m
[Ac]
+10.0 -2.2 42 +6 +6 1016.7 1016.5 +1.7 +11.7
С 9
{14}
16 км 8/8 1290 m
[Ac]
+9.4 -2.2 44 +5 +6 1017.1 1016.8
С 10
{13}
16 км 10/10 1200 м +8.3 -1.7 49 +4 +4 1017.9 1017.5
С 9
{12}
16 км 10/10 1170 м +7.8 -1.7 51 +3 +3 1018.4 1018.1
С 8
{11}
16 км 8/8 1140 м +7.2 -1.7 53 +3 +3 1019.6 1019.2
С 10
{12}
16 км 8/8 1140 м +6.7 -2.2 53 +1 +1 1020.9 1020.5
С 6 16 км 10/10 1140 м +6.1 -2.2 55 +2 +2 1022.1 1021.5 +6.1 +10.0
СЗ 6 16 км 10/10 1080 м +6.1 -2.2 55 +2 +2 1023.0 1022.5
СЗ 4 16 км 8/8 1110 м +5.0 -2.8 57 +1 +1 1023.8 1023.6
СЗ 6
{10}
16 км 2/2 1050 м +4.4 -3.3 57 0 0 1024.2 1023.9
Местоположение метеостанции Philadelphia International Airport: широта 39.8683 долгота -75.2311 высота над уровнем моря 3 м.
В архиве по умолчанию представлена погода в Филадельфии за последние 1-2 суток. Обновление информации о фактической погоде в базе происходит ежечасно! Архивные данные за месяц целиком и за предыдущие месяцы Вы можете получить, выбрав интересующий диапазон дат из раскрывающегося списка и нажав кнопку "Ввод!".
Внимание! Архив погоды МЕТАР в базе сайта по станциям, не включенным в климатический монитор, хранится не более 60 дней. Нет смысла пытаться выбрать более раннюю дату.
*Определитесь, кто Вы:
Внимание! Время в таблицах - местное (без учета летнего времени). Для получения всемирного времени необходимо вычесть поправку, которая равна -5 ч.
Смотрите также архив погоды в соседних городах и на ближайших метеорологических станциях:
Партнеры нашего сайта:      
Пояснения к столбцам:
  • Ветер - указаны скорость ветра в м/с - средняя за 10 мин, порывы в срок и между сроками (в фигурных скобках) и направление, откуда дует ветер: С - северный,
  • СВ - северо-восточный, В - восточный, ЮВ - юго-восточный, Ю - южный, ЮЗ - юго-западный, З - западный, СЗ - северо-западный.
  • Видимость - горизонтальная дальность видимости в метрах или километрах. При видимости от 1 до 10 км при отсутствии осадков обычно наблюдается дымка, при ухудшении видимости до 1 км и менее - туман. В сухую погоду видимость может ухудшаться дымом, пылью или мглою.
  • Явления - указаны атмосферные явления, наблюдавшиеся в срок или в последний час перед сроком; фигурными скобками обозначены явления, наблюдавшиеся между сроками (за 1-3 часа до срока); квадратными скобками обозначены град или гололедные отложения с указанием их диаметра в мм.
  • Облачность - указаны через наклонную черту общая и нижняя облачность в баллах и высота нижней границы облаков в метрах; квадратными скобками обозначены формы облаков: Ci - перистые, Cs - перисто-слоистые, Cc - перисто-кучевые, Ac - высококучевые, As - высокослоистые, Sc - слоисто-кучевые, Ns - слоисто-дождевые, Cu - кучевые, Cb - кучево-дождевые. Подробнее классификацию облаков см. в Атласе облаков (PDF).
  • T - Температура воздуха - температура, измеренная на высоте 2 м над землей.
  • Td - Температура точки росы - температура, при понижении до которой содержащийся в воздухе водяной пар достигнет насыщения.
  • f - Относительная влажность воздуха - влажноcть воздуха, измеренная на высоте 2 м над землей.
  • Te - Эффективная температура - температура, которую ощущает одетый по сезону человек в тени. Характеристика душности погоды. При расчете учитывается влияние влажности воздуха и скорости ветра на теплоощущения человека.
  • Tes - Эффективная температура на солнце - температура, которую ощущает человек, с поправкой на солнечный нагрев. Характеристика знойности погоды. Зависит от высоты солнца над горизонтом, облачности и скорости ветра. Ночью, в пасмурную погоду, а также при ветре 12 м/с и более поправка равна нулю.
  • P - Атмосферное давление - приведенное к уровню моря атмосферное давление.
  • Po - Атмосферное давление - измеренное на уровне метеостанции атмосферное давление.
  • Tmin - Минимальная температура - минимум температуры воздуха на высоте 2 м над землей.
  • Tmax - Максимальная температура - максимум температуры воздуха на высоте 2 м над землей.
  • R - Количество осадков - Количество выпавших осадков за период времени, мм. При наведении курсора мыши на число - период времени, за который выпало указанное количество осадков.
  • R24 - Количество осадков - Количество выпавших осадков за 24 часа, мм.
  • S - Снежный покров - Высота снежного покрова, см. При наведении курсора мыши на число - состояние снежного покрова и степень покрытия местности в баллах.